[TLELIST] Archives

 

[list_settings.list_name] Current TLEs

October 11th 2011 PST

HST 1 20580U 90037B 11280.58698800 +.00002511 +00000-0 +17644-3 0 08465 2 20580 028.4704 002.1202 0003440 226.9574 133.0939 15.01589504976564 ISS (ZARYA) 1 25544U 98067A 11282.83004630 .00018714 00000-0 22759-3 0 2136 2 25544 051.6416 303.6187 0016092 308.3388 044.6575 15.60450651738804 CXO 1 25867U 99040B 11282.70833333 +.00000204 +00000-0 +00000-0 0 06526 2 25867 070.2720 023.7149 8693089 277.2074 000.2031 00.37809531008208 ____________________________________________________________________ These 2-Line ...Continue Reading

[list_settings.list_name] Current TLEs

October 10th 2011 PST

HST 1 20580U 90037B 11278.65948814 +.00002055 +00000-0 +14217-3 0 08458 2 20580 028.4709 014.7171 0003450 211.7045 148.3349 15.01579291976273 ISS (ZARYA) 1 25544U 98067A 11280.91120370 +.00032281 +00000-0 +38830-3 0 01998 2 25544 051.6411 313.2799 0016031 301.1960 065.5377 15.60388094738516 CXO 1 25867U 99040B 11280.04166667 .00000234 00000-0 00000+0 0 6511 2 25867 070.2513 023.8945 8692197 277.1857 357.2347 00.37806856 8190 ____________________________________________________________________ These 2-Line ...Continue Reading

[list_settings.list_name] Current TLEs

October 9th 2011 PST

HST 1 20580U 90037B 11278.65948814 +.00002055 +00000-0 +14217-3 0 08458 2 20580 028.4709 014.7171 0003450 211.7045 148.3349 15.01579291976273 ISS (ZARYA) 1 25544U 98067A 11279.96126953 +.00021234 +00000-0 +25829-3 0 01927 2 25544 051.6429 318.0563 0016234 297.5037 129.6269 15.60347653738366 CXO 1 25867U 99040B 11280.04166667 .00000234 00000-0 00000+0 0 6511 2 25867 070.2513 023.8945 8692197 277.1857 357.2347 00.37806856 8190 ____________________________________________________________________ These 2-Line ...Continue Reading

[list_settings.list_name] Current TLEs

October 8th 2011 PST

HST 1 20580U 90037B 11278.65948814 +.00002055 +00000-0 +14217-3 0 08458 2 20580 028.4709 014.7171 0003450 211.7045 148.3349 15.01579291976273 ISS (ZARYA) 1 25544U 98067A 11280.22026542 .00017512 00000-0 21423-3 0 1943 2 25544 051.6415 316.7519 0016233 298.3426 144.5883 15.60348525738409 CXO 1 25867U 99040B 11280.04166667 .00000234 00000-0 00000+0 0 6511 2 25867 070.2513 023.8945 8692197 277.1857 357.2347 00.37806856 8190 ____________________________________________________________________ These 2-Line ...Continue Reading

[list_settings.list_name] Current TLEs

October 7th 2011 PST

HST 1 20580U 90037B 11275.73498684 .00002099 00000-0 14549-3 0 8444 2 20580 028.4703 033.8287 0003528 182.0873 177.9591 15.01568413975834 ISS (ZARYA) 1 25544U 98067A 11279.43695587 .00018194 00000-0 21616-3 0 1890 2 25544 051.6402 320.6976 0016387 295.1545 064.8268 15.60319287142349 CXO 1 25867U 99040B 11280.04166667 .00000234 00000-0 00000+0 0 6511 2 25867 070.2513 023.8945 8692197 277.1857 357.2347 00.37806856 8190 ____________________________________________________________________ These 2-Line ...Continue Reading

[list_settings.list_name] Current TLEs

October 6th 2011 PST

HST 1 20580U 90037B 11275.73498684 .00002099 00000-0 14549-3 0 8444 2 20580 028.4703 033.8287 0003528 182.0873 177.9591 15.01568413975834 ISS (ZARYA) 1 25544U 98067A 11277.89675926 .00019083 00000-0 23352-3 0 1801 2 25544 051.6418 328.4408 0016271 288.9723 053.8957 15.60269899738035 CXO 1 25867U 99040B 11280.04166667 .00000234 00000-0 00000+0 0 6511 2 25867 070.2513 023.8945 8692197 277.1857 357.2347 00.37806856 8190 ____________________________________________________________________ These 2-Line ...Continue Reading

[list_settings.list_name] Current TLEs

October 3rd 2011 PST

HST 1 20580U 90037B 11273.80746214 .00002214 00000-0 15423-3 0 8435 2 20580 028.4698 046.4237 0003603 164.0013 196.0507 15.01561807975549 ISS (ZARYA) 1 25544U 98067A 11275.22712959 -.00000906 00000-0 -44256-5 0 1640 2 25544 051.6413 341.8745 0016534 278.9327 179.2046 15.60150506737624 CXO 1 25867U 99040B 11274.75000000 -.00000046 00000-0 00000+0 0 6488 2 25867 070.2141 024.2202 8689651 277.1412 357.0194 00.37809877 8178 ____________________________________________________________________ These 2-Line ...Continue Reading

[list_settings.list_name] Current TLEs

October 1st 2011 PST

HST 1 20580U 90037B 11272.81047130 .00002503 00000-0 17600-3 0 8425 2 20580 028.4712 052.9281 0003743 155.5009 204.6083 15.01558966975392 ISS (ZARYA) 1 25544U 98067A 11273.56068844 -.00006343 00000-0 -69670-4 0 1559 2 25544 051.6425 350.2542 0017148 269.0895 183.2994 15.60116027737367 CXO 1 25867U 99040B 11274.75000000 -.00000046 00000-0 00000+0 0 6488 2 25867 070.2141 024.2202 8689651 277.1412 357.0194 00.37809877 8178 ____________________________________________________________________ These 2-Line ...Continue Reading

[list_settings.list_name] Current TLEs

September 30th 2011 PST

HST 1 20580U 90037B 11272.81047130 .00002503 00000-0 17600-3 0 8425 2 20580 028.4712 052.9281 0003743 155.5009 204.6083 15.01558966975392 ISS (ZARYA) 1 25544U 98067A 11273.37368264 -.00006334 00000-0 -69670-4 0 1535 2 25544 051.6410 351.1988 0017169 274.5840 206.7806 15.60075712737334 CXO 1 25867U 99040B 11274.75000000 -.00000046 00000-0 00000+0 0 6488 2 25867 070.2141 024.2202 8689651 277.1412 357.0194 00.37809877 8178 ____________________________________________________________________ These 2-Line ...Continue Reading

[list_settings.list_name] Current TLEs

September 29th 2011 PST

HST 1 20580U 90037B 11271.81346906 .00002349 00000-0 16445-3 0 8410 2 20580 028.4701 059.4563 0003225 130.3425 229.7364 15.01553877975243 ISS (ZARYA) 1 25544U 98067A 11272.40797881 .00030618 00000-0 35124-3 0 1489 2 25544 051.6424 356.0575 0010189 249.1943 203.1638 15.61743940737185 CXO 1 25867U 99040B 11266.83333333 .00000286 00000-0 00000+0 0 6470 2 25867 070.1402 024.7907 8678385 277.1208 359.2007 00.37806525 8140 ____________________________________________________________________ These 2-Line ...Continue Reading
  • This mailing list is a public mailing list - anyone may join or leave, at any time.
  • This mailing list is announce-only.

International Space Station (ISS) / Hubble Space Telescope (HST) / Chandra X-Ray Observatory Orbital Data via EMAIL

Privacy Policy:

Private list